Погода в Лоскутове

Россия / Республика Марий Эл     57°00′59″N   49°13′35″E
темп.,
°C
ветер,
м/с
пор.,
м/с
влажн.,
%
обл.,
%
осадки,
мм/ч
давл.,
гПа
погр.,
м
22 апреля, чт
чт2200:00+2ююв81595100 0.3 1020695
03:00+3ю81595100 0.7 1020611
06:00+3ю71494100 0.1 1020500
09:00+5ююз71285100 0.1 1021647
12:00+8ю6971100 0.0 1022838
15:00+9ю7107682 0.0 10221010
18:00+8ю81380100 0.1 1022741
21:00+5ююв411936 0.6 1023298
23 апреля, пт
пт2300:00+4ю49955 0.0 1023184
03:00+3ююз34965 0.0 102453
06:00+5ю23935 0.0 102498
09:00+10ю33735 0.0 1025555
12:00+13ю335371 0.1 10241606
15:00+14ююв344643 0.1 10231740
18:00+11юв36655 0.0 1023146
21:00+8юв498660 0.1 1023182
24 апреля, сб
сб2400:00+8вюв3880100 0.0 1021207
03:00+6вюв41087100 0.0 1020272
06:00+6в51188100 0.0 1019404
09:00+7вюв6882100 0.0 1017568
12:00+7вюв5786100 0.1 1015974
15:00+6в5992100 0.6 1014572
18:00+6вюв4995100 0.4 1012554
21:00+5вюв5996100 0.4 1010499
25 апреля, вс
вс2500:00+5вюв4995100 0.1 1008500
03:00+4вюв5109779 0.1 1006339
06:00+4вюв4998100 2.4 1003651
09:00+2зюз71196100 3.0 1003444
12:00+5з81580100 0.1 10061440
15:00+9з91553100 0.5 10072291
18:00+7з7125611 0.1 1009604
21:00+4юз513701 0.2 1011326
26 апреля, пн
пн2600:00+2юз411813 0.0 1012210
03:00+1юз410850 0.0 1012174
06:00+2юз511835 0.0 1013342
09:00+6зюз710625 0.0 10141196
12:00+9зюз7945100 0.2 10142344
15:00+10зюз71038100 0.2 10142492
18:00+8зюз365933 0.0 1014209
21:00+4ююз367810 0.1 101496